| time (UTC) | temp F | wind direction | speed MPH | gust MPH | rain 1hr in | rain 24hr in | rain mn in | humidity % | barometer mb |
| 20260902002308 | 58 | 214 | 1.0 | 2.0 | 0.00 | 0.45 | 0.00 | 84 | 1019.6 |
| 20260902001801 | 58 | 214 | 1.0 | 2.0 | 0.00 | 0.45 | 0.00 | 84 | 1019.7 |
| 20260902001302 | 58 | 214 | 0.0 | 2.0 | 0.00 | 0.45 | 0.00 | 84 | 1019.6 |
| 20260902000801 | 58 | 214 | 0.0 | 2.0 | 0.00 | 0.45 | 0.00 | 83 | 1019.5 |
| 20260902000304 | 58 | 289 | 0.0 | 1.0 | 0.00 | 0.46 | 0.00 | 83 | 1019.6 |
| 20260902000142 | 58 | 289 | 0.0 | 2.0 | 0.00 | 0.46 | 0.00 | 83 | 1019.7 |
| 20260901235307 | 58 | 289 | 0.0 | 2.0 | 0.00 | 0.49 | 0.00 | 83 | 1019.7 |
| 20260901234804 | 58 | 289 | 0.0 | 2.0 | 0.00 | 0.55 | 0.00 | 83 | 1019.7 |
| 20260901234312 | 58 | 289 | 0.0 | 2.0 | 0.00 | 0.57 | 0.00 | 83 | 1019.7 |
| 20260901233805 | 58 | 326 | 0.0 | 1.0 | 0.00 | 0.57 | 0.00 | 83 | 1019.7 |
| 20260901233303 | 58 | 326 | 0.0 | 0.0 | 0.00 | 0.57 | 0.00 | 83 | 1019.7 |
| 20260901232751 | 58 | 326 | 0.0 | 1.0 | 0.00 | 0.57 | 0.00 | 83 | 1019.8 |
| 20260901232241 | 58 | 326 | 0.0 | 1.0 | 0.00 | 0.57 | 0.00 | 83 | 1019.8 |
| 20260901231734 | 59 | 326 | 0.0 | 1.0 | 0.00 | 0.57 | 0.00 | 83 | 1019.8 |
| 20260901231235 | 59 | 326 | 0.0 | 0.0 | 0.00 | 0.57 | 0.00 | 82 | 1020.0 |
| 20260901230731 | 59 | 326 | 0.0 | 1.0 | 0.00 | 0.57 | 0.00 | 82 | 1019.9 |
| 20260901230229 | 59 | 326 | 0.0 | 1.0 | 0.00 | 0.57 | 0.00 | 82 | 1020.0 |
| 20260901225724 | 59 | 326 | 0.0 | 1.0 | 0.00 | 0.57 | 0.00 | 82 | 1019.9 |
| 20260901225219 | 59 | 326 | 0.0 | 0.0 | 0.00 | 0.57 | 0.00 | 82 | 1019.9 |
| 20260901224709 | 59 | 326 | 0.0 | 0.0 | 0.00 | 0.57 | 0.00 | 82 | 1019.9 |
| 20260901224202 | 59 | 326 | 0.0 | 1.0 | 0.00 | 0.57 | 0.00 | 82 | 1019.9 |
| 20260901224027 | 59 | 326 | 0.0 | 1.0 | 0.00 | 0.57 | 0.00 | 81 | 1019.9 |
| 20260901223201 | 60 | 326 | 0.0 | 1.0 | 0.00 | 0.57 | 0.00 | 81 | 1020.0 |
| 20260901222704 | 60 | 326 | 0.0 | 1.0 | 0.00 | 0.57 | 0.00 | 81 | 1020.0 |
| 20260901222208 | 60 | 326 | 0.0 | 1.0 | 0.00 | 0.57 | 0.00 | 81 | 1020.0 |
| 20260901221703 | 60 | 326 | 0.0 | 1.0 | 0.00 | 0.57 | 0.00 | 81 | 1020.0 |
| 20260901221202 | 60 | 326 | 0.0 | 0.0 | 0.00 | 0.57 | 0.00 | 81 | 1019.9 |
| 20260901220709 | 60 | 326 | 0.0 | 0.0 | 0.00 | 0.57 | 0.00 | 80 | 1019.8 |
| 20260901220206 | 60 | 326 | 0.0 | 0.0 | 0.00 | 0.57 | 0.00 | 80 | 1019.9 |
| 20260901215706 | 60 | 326 | 0.0 | 0.0 | 0.00 | 0.57 | 0.57 | 80 | 1019.9 |
| 20260901215206 | 60 | 326 | 0.0 | 1.0 | 0.00 | 0.57 | 0.57 | 80 | 1019.9 |
| 20260901214657 | 60 | 326 | 0.0 | 1.0 | 0.00 | 0.57 | 0.57 | 80 | 1019.9 |
| 20260901214152 | 61 | 326 | 0.0 | 0.0 | 0.00 | 0.57 | 0.57 | 80 | 1019.8 |
| 20260901213636 | 61 | 326 | 0.0 | 0.0 | 0.00 | 0.57 | 0.57 | 79 | 1019.9 |
| 20260901213316 | 61 | 326 | 0.0 | 0.0 | 0.00 | 0.57 | 0.57 | 79 | 1020.0 |
| 20260901213243 | 61 | 326 | 0.0 | 0.0 | 0.00 | 0.57 | 0.57 | 79 | 1019.9 |
| 20260901212131 | 61 | 326 | 0.0 | 0.0 | 0.00 | 0.57 | 0.57 | 79 | 1020.2 |
| 20260901211629 | 61 | 326 | 0.0 | 0.0 | 0.00 | 0.57 | 0.57 | 79 | 1020.4 |
| 20260901211129 | 61 | 326 | 0.0 | 0.0 | 0.00 | 0.57 | 0.57 | 78 | 1020.3 |
| 20260901210629 | 62 | 326 | 0.0 | 0.0 | 0.00 | 0.57 | 0.57 | 78 | 1020.5 |
| 20260901210135 | 62 | 326 | 0.0 | 0.0 | 0.00 | 0.57 | 0.57 | 78 | 1020.4 |
| 20260901205630 | 62 | 326 | 0.0 | 1.0 | 0.00 | 0.57 | 0.57 | 78 | 1020.4 |
| 20260901205131 | 62 | 326 | 0.0 | 1.0 | 0.00 | 0.57 | 0.57 | 77 | 1020.4 |
| 20260901204628 | 62 | 326 | 0.0 | 0.0 | 0.00 | 0.57 | 0.57 | 77 | 1020.3 |
| 20260901204438 | 62 | 326 | 0.0 | 0.0 | 0.00 | 0.57 | 0.57 | 76 | 1020.3 |
| 20260901203609 | 63 | 326 | 0.0 | 1.0 | 0.00 | 0.57 | 0.57 | 76 | 1020.3 |
| 20260901203110 | 63 | 326 | 0.0 | 1.0 | 0.00 | 0.57 | 0.57 | 76 | 1020.2 |
| 20260901202613 | 63 | 326 | 0.0 | 0.0 | 0.00 | 0.57 | 0.57 | 76 | 1020.3 |
| 20260901202111 | 63 | 326 | 0.0 | 0.0 | 0.00 | 0.57 | 0.57 | 75 | 1020.3 |
| 20260901201604 | 64 | 326 | 0.0 | 0.0 | 0.00 | 0.57 | 0.57 | 75 | 1020.3 |
| 20260901201103 | 64 | 326 | 0.0 | 0.0 | 0.00 | 0.57 | 0.57 | 74 | 1020.3 |
| 20260901200613 | 64 | 326 | 0.0 | 0.0 | 0.00 | 0.57 | 0.57 | 73 | 1020.3 |
| 20260901200105 | 64 | 326 | 0.0 | 0.0 | 0.00 | 0.57 | 0.57 | 73 | 1020.2 |
| 20260901195605 | 64 | 326 | 0.0 | 1.0 | 0.00 | 0.57 | 0.57 | 73 | 1020.2 |
| 20260901195105 | 64 | 326 | 0.0 | 1.0 | 0.00 | 0.57 | 0.57 | 73 | 1020.2 |
| 20260901194612 | 64 | 326 | 0.0 | 1.0 | 0.00 | 0.57 | 0.57 | 73 | 1020.2 |
| 20260901194057 | 65 | 326 | 0.0 | 0.0 | 0.00 | 0.57 | 0.57 | 73 | 1020.1 |
| 20260901193551 | 65 | 326 | 0.0 | 0.0 | 0.00 | 0.57 | 0.57 | 72 | 1020.0 |
| 20260901193045 | 65 | 326 | 0.0 | 0.0 | 0.00 | 0.57 | 0.57 | 71 | 1020.0 |
| 20260901192537 | 65 | 326 | 0.0 | 0.0 | 0.00 | 0.57 | 0.57 | 71 | 1019.8 |
| 20260901192035 | 65 | 326 | 0.0 | 0.0 | 0.00 | 0.57 | 0.57 | 70 | 1019.8 |
| 20260901191532 | 65 | 326 | 0.0 | 1.0 | 0.00 | 0.57 | 0.57 | 70 | 1020.0 |
| 20260901191032 | 66 | 326 | 0.0 | 1.0 | 0.00 | 0.57 | 0.57 | 69 | 1019.9 |
| 20260901190534 | 66 | 326 | 0.0 | 1.0 | 0.00 | 0.57 | 0.57 | 69 | 1020.0 |
| 20260901190438 | 67 | 326 | 0.0 | 1.0 | 0.00 | 0.57 | 0.57 | 68 | 1020.0 |
| 20260901190434 | 67 | 326 | 0.0 | 1.0 | 0.00 | 0.57 | 0.57 | 66 | 1019.8 |
| 20260901190425 | 68 | 321 | 1.0 | 4.0 | 0.00 | 0.57 | 0.57 | 65 | 1019.7 |
| 20260901190421 | 69 | 9 | 2.0 | 8.0 | 0.00 | 0.57 | 0.57 | 63 | 1019.9 |
| 20260901190417 | 70 | 344 | 2.0 | 5.0 | 0.00 | 0.57 | 0.57 | 62 | 1019.8 |
| 20260901190239 | 66 | 326 | 0.0 | 1.0 | 0.00 | 0.57 | 0.57 | 69 | 1019.9 |
| 20260901190027 | 66 | 326 | 0.0 | 1.0 | 0.00 | 0.57 | 0.57 | 69 | 1019.9 |
| 20260901185444 | 67 | 326 | 0.0 | 1.0 | 0.00 | 0.57 | 0.57 | 68 | 1019.8 |
| 20260901185306 | 67 | 326 | 0.0 | 1.0 | 0.00 | 0.57 | 0.57 | 67 | 1019.7 |
| 20260901184714 | 67 | 326 | 0.0 | 2.0 | 0.00 | 0.57 | 0.57 | 66 | 1019.8 |
| 20260901184523 | 67 | 326 | 0.0 | 2.0 | 0.00 | 0.57 | 0.57 | 66 | 1019.8 |
| 20260901184331 | 67 | 292 | 0.0 | 2.0 | 0.00 | 0.57 | 0.57 | 66 | 1019.8 |
| 20260901184139 | 68 | 321 | 0.0 | 2.0 | 0.00 | 0.57 | 0.57 | 66 | 1019.8 |
| 20260901183940 | 68 | 321 | 0.0 | 3.0 | 0.00 | 0.57 | 0.57 | 66 | 1019.8 |
| 20260901183333 | 68 | 304 | 1.0 | 4.0 | 0.00 | 0.57 | 0.57 | 65 | 1019.8 |
| 20260901183105 | 68 | 315 | 1.0 | 4.0 | 0.00 | 0.57 | 0.57 | 65 | 1019.8 |
| 20260901182536 | 68 | 5 | 1.0 | 5.0 | 0.00 | 0.57 | 0.57 | 64 | 1019.8 |
| 20260901181813 | 68 | 341 | 2.0 | 9.0 | 0.00 | 0.57 | 0.57 | 64 | 1019.8 |
| 20260901181003 | 68 | 307 | 3.0 | 9.0 | 0.00 | 0.57 | 0.57 | 63 | 1019.8 |
| 20260901180231 | 69 | 327 | 3.0 | 5.0 | 0.00 | 0.57 | 0.57 | 63 | 1019.9 |
| 20260901175500 | 69 | 304 | 3.0 | 5.0 | 0.00 | 0.57 | 0.57 | 63 | 1019.9 |
| 20260901174417 | 69 | 250 | 2.0 | 8.0 | 0.00 | 0.57 | 0.57 | 63 | 1019.8 |
| 20260901173702 | 69 | 304 | 3.0 | 8.0 | 0.00 | 0.57 | 0.57 | 63 | 1019.8 |
| 20260901172941 | 69 | 355 | 3.0 | 8.0 | 0.00 | 0.57 | 0.57 | 63 | 1019.8 |
| 20260901171002 | 70 | 5 | 2.0 | 6.0 | 0.00 | 0.57 | 0.57 | 62 | 1019.7 |
| 20260901170212 | 70 | 344 | 2.0 | 5.0 | 0.00 | 0.57 | 0.57 | 62 | 1019.8 |
| 20260901165519 | 70 | 9 | 2.0 | 6.0 | 0.00 | 0.57 | 0.57 | 62 | 1019.9 |
| 20260901165010 | 70 | 290 | 2.0 | 6.0 | 0.00 | 0.57 | 0.57 | 61 | 1019.7 |
| 20260901164516 | 70 | 320 | 2.0 | 6.0 | 0.00 | 0.57 | 0.57 | 61 | 1019.7 |
| 20260901164015 | 70 | 144 | 2.0 | 8.0 | 0.00 | 0.57 | 0.57 | 60 | 1019.7 |
| 20260901163517 | 71 | 283 | 2.0 | 8.0 | 0.00 | 0.57 | 0.57 | 60 | 1019.6 |
| 20260901163006 | 71 | 0 | 2.0 | 8.0 | 0.00 | 0.57 | 0.57 | 60 | 1019.8 |
| 20260901162514 | 71 | 300 | 2.0 | 8.0 | 0.00 | 0.57 | 0.57 | 60 | 1019.5 |
| 20260901162011 | 71 | 327 | 3.0 | 8.0 | 0.00 | 0.57 | 0.57 | 59 | 1019.5 |
| 20260901161501 | 71 | 22 | 2.0 | 6.0 | 0.00 | 0.57 | 0.57 | 59 | 1019.5 |
| 20260901161001 | 71 | 355 | 3.0 | 9.0 | 0.00 | 0.57 | 0.57 | 59 | 1019.5 |
| 20260901160502 | 71 | 337 | 3.0 | 9.0 | 0.00 | 0.57 | 0.57 | 58 | 1019.5 |
| 20260901155955 | 72 | 336 | 2.0 | 6.0 | 0.00 | 0.57 | 0.57 | 59 | 1019.5 |
| 20260901155454 | 71 | 355 | 2.0 | 5.0 | 0.00 | 0.57 | 0.57 | 60 | 1019.5 |
| 20260901154955 | 71 | 346 | 2.0 | 5.0 | 0.00 | 0.57 | 0.57 | 60 | 1019.6 |
| 20260901154845 | 71 | 271 | 2.0 | 7.0 | 0.00 | 0.57 | 0.57 | 59 | 1019.5 |
| 20260901153952 | 72 | 196 | 3.0 | 7.0 | 0.00 | 0.57 | 0.57 | 58 | 1019.6 |
| 20260901153453 | 72 | 263 | 2.0 | 5.0 | 0.00 | 0.57 | 0.57 | 58 | 1019.6 |
| 20260901152955 | 72 | 5 | 2.0 | 8.0 | 0.00 | 0.57 | 0.57 | 58 | 1019.6 |
| 20260901152456 | 73 | 228 | 3.0 | 10.0 | 0.00 | 0.57 | 0.57 | 57 | 1019.6 |
| 20260901151953 | 73 | 317 | 3.0 | 10.0 | 0.00 | 0.57 | 0.57 | 57 | 1019.6 |
| 20260901151449 | 73 | 355 | 3.0 | 8.0 | 0.00 | 0.57 | 0.57 | 57 | 1019.6 |
| 20260901150952 | 73 | 13 | 3.0 | 8.0 | 0.00 | 0.57 | 0.57 | 56 | 1019.6 |
| 20260901150449 | 73 | 13 | 3.0 | 8.0 | 0.00 | 0.57 | 0.57 | 59 | 1019.4 |
| 20260901150225 | 73 | 317 | 2.0 | 6.0 | 0.00 | 0.57 | 0.57 | 57 | 1019.5 |
| 20260901150108 | 72 | 280 | 3.0 | 6.0 | 0.00 | 0.57 | 0.57 | 58 | 1019.6 |
| 20260901144948 | 73 | 346 | 2.0 | 6.0 | 0.00 | 0.57 | 0.57 | 58 | 1019.6 |
| 20260901144450 | 73 | 5 | 3.0 | 8.0 | 0.00 | 0.57 | 0.57 | 58 | 1019.6 |
| 20260901143944 | 73 | 309 | 3.0 | 9.0 | 0.00 | 0.57 | 0.57 | 57 | 1019.6 |
| 20260901143442 | 73 | 173 | 3.0 | 9.0 | 0.00 | 0.57 | 0.57 | 58 | 1019.5 |
| 20260901142945 | 72 | 324 | 3.0 | 10.0 | 0.00 | 0.57 | 0.57 | 58 | 1019.7 |
| 20260901142442 | 73 | 350 | 3.0 | 10.0 | 0.00 | 0.57 | 0.57 | 58 | 1019.7 |
| 20260901141945 | 73 | 5 | 4.0 | 11.0 | 0.00 | 0.57 | 0.57 | 59 | 1019.5 |
| 20260901141440 | 72 | 254 | 4.0 | 11.0 | 0.00 | 0.57 | 0.57 | 59 | 1019.6 |
| 20260901140939 | 72 | 337 | 3.0 | 10.0 | 0.00 | 0.57 | 0.57 | 60 | 1019.6 |
| 20260901140442 | 73 | 315 | 3.0 | 10.0 | 0.00 | 0.57 | 0.57 | 58 | 1019.7 |
| 20260901135941 | 73 | 250 | 3.0 | 8.0 | 0.00 | 0.57 | 0.57 | 60 | 1019.6 |
| 20260901135445 | 73 | 300 | 3.0 | 9.0 | 0.00 | 0.57 | 0.57 | 59 | 1019.5 |
| 20260901134938 | 72 | 0 | 3.0 | 9.0 | 0.00 | 0.57 | 0.57 | 59 | 1019.5 |
| 20260901134851 | 72 | 355 | 3.0 | 8.0 | 0.00 | 0.57 | 0.57 | 60 | 1019.6 |
| 20260901133934 | 72 | 288 | 3.0 | 8.0 | 0.00 | 0.57 | 0.57 | 60 | 1019.6 |
| 20260901133436 | 72 | 330 | 3.0 | 7.0 | 0.00 | 0.57 | 0.57 | 61 | 1019.7 |
| 20260901132937 | 72 | 271 | 3.0 | 8.0 | 0.00 | 0.57 | 0.57 | 61 | 1019.7 |
| 20260901132746 | 72 | 307 | 4.0 | 10.0 | 0.00 | 0.57 | 0.57 | 60 | 1019.6 |
| 20260901132617 | 71 | 238 | 4.0 | 10.0 | 0.00 | 0.57 | 0.57 | 60 | 1019.6 |
| 20260901131435 | 71 | 286 | 3.0 | 9.0 | 0.00 | 0.57 | 0.57 | 61 | 1019.6 |
| 20260901130933 | 72 | 323 | 3.0 | 9.0 | 0.00 | 0.57 | 0.57 | 59 | 1019.6 |
| 20260901130853 | 72 | 0 | 3.0 | 9.0 | 0.00 | 0.57 | 0.57 | 60 | 1019.6 |
| 20260901125939 | 72 | 338 | 3.0 | 8.0 | 0.00 | 0.57 | 0.57 | 62 | 1019.6 |
| 20260901125433 | 71 | 257 | 4.0 | 10.0 | 0.00 | 0.57 | 0.57 | 61 | 1019.6 |
| 20260901124938 | 71 | 334 | 4.0 | 11.0 | 0.00 | 0.57 | 0.57 | 61 | 1019.7 |
| 20260901124900 | 72 | 319 | 3.0 | 11.0 | 0.00 | 0.57 | 0.57 | 62 | 1019.6 |
| 20260901123933 | 72 | 243 | 4.0 | 10.0 | 0.00 | 0.57 | 0.57 | 61 | 1019.5 |
| 20260901123856 | 72 | 5 | 4.0 | 13.0 | 0.00 | 0.57 | 0.57 | 61 | 1019.6 |
| 20260901123640 | 72 | 15 | 5.0 | 13.0 | 0.00 | 0.57 | 0.57 | 62 | 1019.6 |
| 20260901122918 | 72 | 32 | 4.0 | 9.0 | 0.00 | 0.57 | 0.57 | 62 | 1019.6 |
| 20260901121935 | 71 | 284 | 4.0 | 10.0 | 0.00 | 0.57 | 0.57 | 62 | 1019.7 |
| 20260901121433 | 70 | 307 | 4.0 | 13.0 | 0.00 | 0.57 | 0.57 | 62 | 1019.8 |
| 20260901120933 | 70 | 31 | 4.0 | 13.0 | 0.00 | 0.57 | 0.57 | 62 | 1019.8 |
| 20260901120853 | 71 | 290 | 3.0 | 8.0 | 0.00 | 0.57 | 0.57 | 63 | 1019.7 |
| 20260901115932 | 71 | 320 | 3.0 | 9.0 | 0.00 | 0.57 | 0.57 | 66 | 1019.6 |
| 20260901115432 | 70 | 332 | 4.0 | 11.0 | 0.00 | 0.57 | 0.57 | 65 | 1019.7 |
| 20260901114932 | 70 | 319 | 4.0 | 11.0 | 0.00 | 0.57 | 0.57 | 64 | 1019.7 |
| 20260901114432 | 71 | 306 | 4.0 | 9.0 | 0.00 | 0.57 | 0.57 | 65 | 1019.6 |
| 20260901114323 | 70 | 22 | 4.0 | 9.0 | 0.00 | 0.57 | 0.57 | 66 | 1019.6 |
| 20260901113434 | 70 | 28 | 3.0 | 9.0 | 0.00 | 0.57 | 0.57 | 64 | 1019.8 |
| 20260901113324 | 70 | 340 | 3.0 | 8.0 | 0.00 | 0.57 | 0.57 | 67 | 1019.7 |
| 20260901112435 | 69 | 321 | 4.0 | 11.0 | 0.00 | 0.57 | 0.57 | 66 | 1019.6 |
| 20260901111930 | 69 | 258 | 4.0 | 15.0 | 0.00 | 0.57 | 0.57 | 65 | 1019.6 |
| 20260901111433 | 70 | 304 | 3.0 | 15.0 | 0.00 | 0.57 | 0.57 | 66 | 1019.6 |
| 20260901110930 | 70 | 274 | 3.0 | 8.0 | 0.00 | 0.57 | 0.57 | 69 | 1019.6 |
| 20260901110431 | 69 | 317 | 4.0 | 10.0 | 0.00 | 0.57 | 0.57 | 71 | 1019.6 |
| 20260901105933 | 69 | 202 | 4.0 | 10.0 | 0.00 | 0.57 | 0.57 | 70 | 1019.6 |
| 20260901105429 | 69 | 5 | 3.0 | 8.0 | 0.00 | 0.57 | 0.57 | 72 | 1019.7 |
| 20260901104933 | 69 | 287 | 4.0 | 9.0 | 0.00 | 0.57 | 0.57 | 71 | 1019.6 |
| 20260901104430 | 69 | 327 | 4.0 | 11.0 | 0.00 | 0.57 | 0.57 | 73 | 1019.6 |
| 20260901103928 | 69 | 202 | 4.0 | 11.0 | 0.00 | 0.57 | 0.57 | 73 | 1019.6 |
| 20260901103727 | 69 | 355 | 3.0 | 9.0 | 0.00 | 0.57 | 0.57 | 73 | 1019.7 |
| 20260901103611 | 68 | 244 | 4.0 | 9.0 | 0.00 | 0.57 | 0.57 | 72 | 1019.7 |
| 20260901102433 | 69 | 330 | 3.0 | 10.0 | 0.00 | 0.57 | 0.57 | 76 | 1019.5 |
| 20260901101932 | 68 | 350 | 4.0 | 10.0 | 0.00 | 0.57 | 0.57 | 78 | 1019.6 |
| 20260901101431 | 68 | 317 | 3.0 | 10.0 | 0.00 | 0.57 | 0.57 | 77 | 1019.6 |
| 20260901100933 | 68 | 327 | 3.0 | 9.0 | 0.00 | 0.57 | 0.57 | 78 | 1019.6 |
| 20260901100430 | 67 | 135 | 3.0 | 8.0 | 0.00 | 0.57 | 0.57 | 79 | 1019.7 |
| 20260901095931 | 67 | 319 | 2.0 | 8.0 | 0.00 | 0.57 | 0.57 | 79 | 1019.6 |
| 20260901095424 | 67 | 331 | 2.0 | 8.0 | 0.00 | 0.57 | 0.57 | 83 | 1019.6 |
| 20260901095333 | 66 | 13 | 2.0 | 8.0 | 0.00 | 0.57 | 0.57 | 84 | 1019.6 |
| 20260901094427 | 65 | 276 | 1.0 | 8.0 | 0.00 | 0.57 | 0.57 | 86 | 1019.6 |
| 20260901094254 | 65 | 336 | 2.0 | 9.0 | 0.00 | 0.57 | 0.57 | 87 | 1019.6 |
| 20260901093417 | 66 | 220 | 3.0 | 9.0 | 0.00 | 0.57 | 0.57 | 88 | 1019.5 |
| 20260901092916 | 65 | 348 | 2.0 | 7.0 | 0.00 | 0.57 | 0.57 | 89 | 1019.3 |
| 20260901092741 | 65 | 303 | 1.0 | 4.0 | 0.00 | 0.57 | 0.57 | 92 | 1019.3 |
| 20260901091916 | 64 | 329 | 2.0 | 10.0 | 0.00 | 0.57 | 0.57 | 93 | 1019.3 |
| 20260901091416 | 64 | 263 | 3.0 | 10.0 | 0.00 | 0.57 | 0.57 | 93 | 1019.4 |
| 20260901090921 | 64 | 259 | 2.0 | 5.0 | 0.00 | 0.57 | 0.57 | 94 | 1019.4 |
| 20260901090415 | 64 | 284 | 2.0 | 6.0 | 0.00 | 0.57 | 0.57 | 95 | 1019.4 |
| 20260901085918 | 64 | 315 | 2.0 | 6.0 | 0.00 | 0.57 | 0.57 | 95 | 1019.3 |
| 20260901085410 | 63 | 269 | 2.0 | 8.0 | 0.00 | 0.57 | 0.57 | 95 | 1019.3 |
| 20260901084910 | 63 | 234 | 2.0 | 8.0 | 0.00 | 0.57 | 0.57 | 95 | 1019.2 |
| 20260901084741 | 63 | 254 | 2.0 | 4.0 | 0.00 | 0.57 | 0.57 | 95 | 1019.2 |
| 20260901083912 | 63 | 179 | 2.0 | 5.0 | 0.00 | 0.57 | 0.57 | 95 | 1019.3 |
| 20260901083406 | 63 | 210 | 2.0 | 5.0 | 0.00 | 0.57 | 0.57 | 95 | 1019.2 |
| 20260901082909 | 63 | 234 | 2.0 | 5.0 | 0.00 | 0.57 | 0.57 | 95 | 1019.2 |
| 20260901082407 | 63 | 234 | 2.0 | 5.0 | 0.00 | 0.57 | 0.57 | 95 | 1019.1 |
| 20260901081907 | 62 | 232 | 3.0 | 6.0 | 0.00 | 0.57 | 0.57 | 95 | 1019.0 |
| 20260901081409 | 62 | 210 | 2.0 | 6.0 | 0.00 | 0.57 | 0.57 | 95 | 1018.9 |
| 20260901080910 | 62 | 206 | 2.0 | 6.0 | 0.00 | 0.57 | 0.57 | 95 | 1018.9 |
| 20260901080414 | 62 | 266 | 3.0 | 6.0 | 0.00 | 0.57 | 0.57 | 95 | 1019.0 |
| 20260901075852 | 62 | 207 | 3.0 | 7.0 | 0.00 | 0.57 | 0.57 | 95 | 1018.8 |
| 20260901075348 | 62 | 224 | 3.0 | 7.0 | 0.00 | 0.57 | 0.57 | 95 | 1018.9 |
| 20260901074848 | 62 | 176 | 3.0 | 7.0 | 0.00 | 0.57 | 0.57 | 95 | 1018.7 |
| 20260901074348 | 62 | 232 | 2.0 | 7.0 | 0.00 | 0.57 | 0.57 | 95 | 1018.7 |
| 20260901074137 | 62 | 243 | 2.0 | 6.0 | 0.00 | 0.57 | 0.57 | 95 | 1018.6 |
| 20260901074024 | 62 | 200 | 2.0 | 7.0 | 0.00 | 0.57 | 0.57 | 95 | 1018.7 |
| 20260901072842 | 62 | 238 | 2.0 | 6.0 | 0.00 | 0.57 | 0.57 | 95 | 1018.5 |
| 20260901072344 | 62 | 196 | 2.0 | 6.0 | 0.00 | 0.57 | 0.57 | 95 | 1018.3 |
| 20260901072237 | 62 | 186 | 2.0 | 5.0 | 0.00 | 0.57 | 0.57 | 95 | 1018.3 |
| 20260901071343 | 62 | 186 | 2.0 | 5.0 | 0.00 | 0.57 | 0.57 | 95 | 1018.3 |
| 20260901070841 | 62 | 244 | 2.0 | 4.0 | 0.00 | 0.57 | 0.57 | 94 | 1018.3 |
| 20260901070340 | 62 | 237 | 2.0 | 5.0 | 0.00 | 0.57 | 0.57 | 95 | 1018.3 |
| 20260901065840 | 62 | 231 | 2.0 | 5.0 | 0.00 | 0.57 | 0.57 | 95 | 1018.3 |
| 20260901065342 | 62 | 195 | 2.0 | 4.0 | 0.00 | 0.57 | 0.57 | 95 | 1018.1 |
| 20260901064838 | 61 | 225 | 3.0 | 6.0 | 0.00 | 0.57 | 0.57 | 94 | 1018.2 |
| 20260901064336 | 61 | 217 | 2.0 | 6.0 | 0.00 | 0.57 | 0.57 | 94 | 1018.2 |
| 20260901064212 | 61 | 192 | 2.0 | 5.0 | 0.00 | 0.57 | 0.57 | 94 | 1018.0 |
| 20260901063333 | 61 | 173 | 1.0 | 3.0 | 0.00 | 0.57 | 0.57 | 94 | 1018.0 |
| 20260901062831 | 61 | 208 | 1.0 | 3.0 | 0.01 | 0.57 | 0.57 | 94 | 1017.9 |
| 20260901062332 | 61 | 208 | 1.0 | 3.0 | 0.02 | 0.57 | 0.57 | 94 | 1017.8 |
| 20260901061831 | 61 | 208 | 0.0 | 3.0 | 0.06 | 0.57 | 0.57 | 94 | 1017.7 |
| 20260901061329 | 61 | 208 | 1.0 | 2.0 | 0.10 | 0.57 | 0.57 | 94 | 1017.7 |
| 20260901060828 | 61 | 208 | 1.0 | 2.0 | 0.12 | 0.57 | 0.57 | 94 | 1017.7 |
| 20260901060322 | 61 | 208 | 1.0 | 3.0 | 0.15 | 0.57 | 0.57 | 94 | 1017.7 |
| 20260901055819 | 61 | 208 | 1.0 | 3.0 | 0.15 | 0.57 | 0.57 | 94 | 1017.7 |
| 20260901055319 | 61 | 208 | 1.0 | 3.0 | 0.15 | 0.57 | 0.57 | 94 | 1017.6 |
| 20260901054819 | 61 | 208 | 1.0 | 3.0 | 0.15 | 0.57 | 0.57 | 94 | 1017.6 |
| 20260901054317 | 61 | 208 | 2.0 | 4.0 | 0.15 | 0.57 | 0.57 | 94 | 1017.5 |
| 20260901053813 | 61 | 198 | 1.0 | 3.0 | 0.16 | 0.57 | 0.57 | 94 | 1017.6 |
| 20260901053312 | 61 | 229 | 1.0 | 3.0 | 0.16 | 0.57 | 0.57 | 94 | 1017.5 |
| 20260901052809 | 61 | 199 | 1.0 | 4.0 | 0.15 | 0.57 | 0.57 | 94 | 1017.4 |
| 20260901052524 | 61 | 208 | 1.0 | 3.0 | 0.09 | 0.51 | 0.50 | 94 | 1017.5 |
| 20260901052430 | 61 | 210 | 1.0 | 4.0 | 0.13 | 0.55 | 0.55 | 94 | 1017.5 |
| 20260901051309 | 60 | 236 | 1.0 | 3.0 | 0.06 | 0.47 | 0.47 | 94 | 1017.5 |
| 20260901051138 | 60 | 224 | 0.0 | 3.0 | 0.04 | 0.46 | 0.45 | 94 | 1017.5 |
| 20260901050321 | 60 | 169 | 0.0 | 2.0 | 0.01 | 0.43 | 0.43 | 93 | 1017.5 |
| 20260901045812 | 60 | 169 | 1.0 | 2.0 | 0.01 | 0.43 | 0.43 | 93 | 1017.3 |
| 20260901045312 | 60 | 169 | 1.0 | 2.0 | 0.01 | 0.43 | 0.43 | 93 | 1017.4 |
| 20260901044810 | 60 | 169 | 0.0 | 2.0 | 0.02 | 0.43 | 0.43 | 93 | 1017.3 |
| 20260901044310 | 60 | 169 | 0.0 | 2.0 | 0.03 | 0.43 | 0.43 | 93 | 1017.2 |
| 20260901044139 | 60 | 169 | 1.0 | 4.0 | 0.06 | 0.42 | 0.42 | 93 | 1017.1 |
| 20260901043311 | 60 | 169 | 1.0 | 4.0 | 0.13 | 0.42 | 0.42 | 93 | 1017.1 |
| 20260901043000 | 61 | 196 | 1.0 | 3.0 | 0.28 | 0.42 | 0.42 | 93 | 1017.0 |
| 20260901042956 | 60 | 236 | 1.0 | 3.0 | 0.29 | 0.42 | 0.42 | 93 | 1016.9 |
| 20260901042949 | 60 | 236 | 2.0 | 4.0 | 0.29 | 0.42 | 0.42 | 93 | 1017.1 |
| 20260901042917 | 60 | 169 | 1.0 | 4.0 | 0.17 | 0.42 | 0.42 | 93 | 1017.3 |
| 20260901042734 | 60 | 169 | 1.0 | 4.0 | 0.25 | 0.42 | 0.42 | 93 | 1017.2 |
| 20260901042546 | 60 | 169 | 1.0 | 4.0 | 0.27 | 0.42 | 0.42 | 93 | 1017.1 |
| 20260901042012 | 60 | 236 | 1.0 | 3.0 | 0.28 | 0.42 | 0.42 | 93 | 1016.9 |
| 20260901041331 | 60 | 236 | 1.0 | 3.0 | 0.29 | 0.42 | 0.42 | 93 | 1016.9 |
| 20260901035305 | 60 | 218 | 2.0 | 4.0 | 0.29 | 0.42 | 0.42 | 93 | 1017.0 |
| 20260901034807 | 60 | 197 | 2.0 | 4.0 | 0.28 | 0.41 | 0.41 | 93 | 1017.0 |
| 20260901034258 | 60 | 204 | 2.0 | 4.0 | 0.27 | 0.39 | 0.39 | 93 | 1017.0 |
| 20260901033800 | 60 | 211 | 2.0 | 5.0 | 0.23 | 0.35 | 0.35 | 93 | 1017.0 |
| 20260901033638 | 60 | 254 | 2.0 | 5.0 | 0.16 | 0.28 | 0.28 | 93 | 1017.1 |
| 20260901032758 | 60 | 201 | 2.0 | 4.0 | 0.12 | 0.24 | 0.23 | 93 | 1017.0 |
| 20260901032257 | 60 | 214 | 2.0 | 4.0 | 0.04 | 0.17 | 0.16 | 92 | 1017.0 |
| 20260901032132 | 60 | 202 | 2.0 | 4.0 | 0.02 | 0.15 | 0.15 | 92 | 1016.9 |
| 20260901031250 | 60 | 202 | 2.0 | 4.0 | 0.02 | 0.14 | 0.14 | 92 | 1016.9 |
| 20260901030740 | 60 | 202 | 2.0 | 4.0 | 0.01 | 0.13 | 0.13 | 92 | 1016.9 |
| 20260901030619 | 60 | 144 | 2.0 | 5.0 | 0.00 | 0.13 | 0.13 | 92 | 1016.7 |
| 20260901025735 | 60 | 227 | 2.0 | 5.0 | 0.00 | 0.13 | 0.13 | 92 | 1016.7 |
| 20260901025234 | 60 | 220 | 2.0 | 5.0 | 0.00 | 0.13 | 0.13 | 92 | 1016.8 |
| 20260901024737 | 60 | 192 | 1.0 | 5.0 | 0.00 | 0.13 | 0.13 | 92 | 1016.8 |
| 20260901024231 | 60 | 155 | 2.0 | 5.0 | 0.00 | 0.13 | 0.13 | 92 | 1016.7 |
| 20260901023731 | 60 | 155 | 2.0 | 5.0 | 0.00 | 0.13 | 0.13 | 92 | 1016.8 |
| 20260901023232 | 60 | 234 | 2.0 | 7.0 | 0.00 | 0.13 | 0.13 | 92 | 1016.8 |
| 20260901022730 | 60 | 211 | 3.0 | 7.0 | 0.00 | 0.13 | 0.13 | 91 | 1016.7 |
| 20260901022231 | 60 | 211 | 2.0 | 5.0 | 0.00 | 0.13 | 0.13 | 91 | 1016.8 |
| 20260901022050 | 61 | 222 | 2.0 | 5.0 | 0.00 | 0.13 | 0.13 | 91 | 1016.8 |
| 20260901021231 | 61 | 215 | 3.0 | 5.0 | 0.00 | 0.13 | 0.13 | 91 | 1016.8 |
| 20260901020729 | 61 | 176 | 2.0 | 5.0 | 0.00 | 0.13 | 0.13 | 91 | 1016.9 |
| 20260901020232 | 61 | 194 | 2.0 | 5.0 | 0.00 | 0.13 | 0.13 | 91 | 1016.9 |
| 20260901015720 | 61 | 214 | 2.0 | 4.0 | 0.00 | 0.13 | 0.13 | 91 | 1016.8 |
| 20260901015217 | 61 | 227 | 2.0 | 4.0 | 0.00 | 0.13 | 0.13 | 91 | 1016.8 |
| 20260901014711 | 61 | 221 | 2.0 | 6.0 | 0.00 | 0.13 | 0.13 | 91 | 1016.8 |
| 20260901014211 | 61 | 202 | 2.0 | 6.0 | 0.00 | 0.13 | 0.13 | 91 | 1016.6 |
| 20260901013712 | 61 | 178 | 2.0 | 4.0 | 0.00 | 0.13 | 0.13 | 90 | 1016.7 |
| 20260901013211 | 61 | 204 | 1.0 | 4.0 | 0.00 | 0.13 | 0.13 | 90 | 1016.6 |
| 20260901013027 | 61 | 204 | 1.0 | 3.0 | 0.00 | 0.13 | 0.13 | 90 | 1016.7 |
| 20260901012205 | 62 | 204 | 1.0 | 3.0 | 0.00 | 0.13 | 0.13 | 90 | 1016.7 |
| 20260901011705 | 62 | 204 | 1.0 | 3.0 | 0.00 | 0.13 | 0.13 | 90 | 1016.7 |
| 20260901011535 | 62 | 204 | 1.0 | 4.0 | 0.00 | 0.13 | 0.13 | 90 | 1016.6 |
| 20260901010705 | 62 | 204 | 1.0 | 4.0 | 0.00 | 0.13 | 0.13 | 90 | 1016.6 |
| 20260901010209 | 62 | 238 | 1.0 | 4.0 | 0.01 | 0.13 | 0.13 | 90 | 1016.7 |
| 20260901010050 | 62 | 177 | 2.0 | 4.0 | 0.02 | 0.13 | 0.13 | 90 | 1016.6 |
| 20260901005207 | 62 | 177 | 2.0 | 3.0 | 0.06 | 0.13 | 0.13 | 90 | 1016.7 |
| 20260901004706 | 62 | 177 | 2.0 | 4.0 | 0.12 | 0.13 | 0.13 | 89 | 1016.7 |
| 20260901004208 | 62 | 177 | 2.0 | 4.0 | 0.13 | 0.13 | 0.13 | 89 | 1016.7 |
| 20260901003706 | 62 | 207 | 2.0 | 4.0 | 0.13 | 0.13 | 0.13 | 89 | 1016.8 |
| 20260901003210 | 62 | 213 | 2.0 | 5.0 | 0.13 | 0.13 | 0.13 | 89 | 1016.7 |